Home   Weather   Maceió   Past weeks

Flag for Brazil Past Weather in Maceió, Alagoas, Brazil — Yesterday and Last 2 Weeks

Now
77 °F

Passing clouds.


Feels Like: 78 °F
Forecast: N/A
Wind: 9 mph from East

Location: Maceio Aeroporto

Current Time: Dec 10, 2016 at 7:33:59 pm

Latest Report: Dec 10, 2016 at 7:00 pm


Visibility: N/A

Pressure: 29.89 "Hg

Humidity: 83%

Dew Point: 72 °F

Location of MaceióLocation

Past Weather in Maceió — Graph

°F

Maceió Temperature Yesterday

Maximum temperature yesterday: 88 °F (at 10:00 am)
Minimum temperature yesterday: 73 °F (at 12:00 am)
Average temperature yesterday: 80 °F

High & Low Weather Summary for the Past Weeks

 TemperatureHumidityPressure
High91 °F (Dec 6, 11:00 am)100% (Nov 27, 1:00 am)30.33 "Hg (Nov 27, 1:00 am)
Low70 °F (Nov 26, 2:00 am)46% (Dec 1, 11:00 am)29.80 "Hg (Dec 4, 4:00 pm)
Average79 °F76%29.92 "Hg
* Reported Nov 25 6:00 pm — Dec 10 6:00 pm, Maceió, Weather by CustomWeather, © 2016

Note: Actual official high and low records may vary slightly from our data, if they occured in-between our weather recording intervals... More about our weather records

Advertising

Maceió Weather History for the Previous 24 Hours

Scroll right to see more
 ConditionsComfort  
Time TempWeatherWind HumidityBarometerVisibility
6:00 pm
Sat, Dec 10
79 °FPassing clouds.10 mph74%29.86 "HgN/A
5:00 pm82 °FScattered clouds.16 mph66%29.86 "HgN/A
4:00 pm84 °FScattered clouds.15 mph62%29.86 "HgN/A
3:00 pm86 °FScattered clouds.18 mph59%29.86 "HgN/A
2:00 pm88 °FScattered clouds.18 mph55%29.86 "HgN/A
1:00 pm86 °FScattered clouds.21 mph59%29.89 "HgN/A
12:00 pm88 °FScattered clouds.16 mph55%29.89 "HgN/A
11:00 am88 °FScattered clouds.17 mph55%29.92 "HgN/A
10:00 am88 °FScattered clouds.13 mph55%29.92 "HgN/A
9:00 am84 °FScattered clouds.13 mph58%29.92 "HgN/A
8:00 am72 °FScattered clouds.10 mph100%29.92 "HgN/A
7:00 am79 °FScattered clouds.6 mph79%29.92 "HgN/A
6:00 am75 °FPassing clouds.3 mph89%29.92 "HgN/A
5:00 am73 °FScattered clouds.3 mph94%29.89 "HgN/A
4:00 am72 °FClear.3 mph94%29.89 "Hg10 mi
3:00 am72 °FClear.3 mph94%29.89 "Hg10 mi
2:00 am72 °FClear.3 mph94%29.86 "Hg10 mi
1:00 am73 °FPassing clouds.3 mph94%29.89 "HgN/A
12:00 am73 °FPassing clouds.5 mph94%29.89 "HgN/A
11:00 pm
Fri, Dec 9
73 °FPassing clouds.5 mph94%29.92 "HgN/A
10:00 pm75 °FPassing clouds.6 mph89%29.92 "HgN/A
9:00 pm75 °FClear.8 mph89%29.92 "Hg10 mi
8:00 pm77 °FClear.12 mph83%29.89 "Hg10 mi
7:00 pm77 °FClear.12 mph83%29.89 "Hg10 mi
Weather by CustomWeather, © 2016

See weather overviewHow to use our weather pages